Eastsound, WA
on Monday, November 12, 2012

Monday
Previous Day Next Day
Daily Summary
 ActualAverage (KBLI)Record (KBLI)
Temperature
Mean Temperature °F 44°F  
Max Temperature 50°F 51°F 65°F (1990)
Min Temperature 42°F 38°F 5°F (1955)
Degree Days
Heating Degree Days 19 21  
Month to date heating degree days 237  
Cooling Degree Days 0 0  
Month to date cooling degree days 0  
Year to date cooling degree days 42  
Moisture
Dew Point 45°F   
Average Humidity 92    
Maximum Humidity 93    
Minimum Humidity 87    
Precipitation
Precipitation 0.00 in 0.20 in 0.85 in (2006)
Month to date precipitation 2.33  
Year to date precipitation 28.14  
Wind
Wind Speed 7 mph   
Max Wind Speed 13 mph   
Max Gust Speed 16 mph   
Visibility 9 miles   
Events Rain   

Key: T is trace of precipitation, MM is missing value
Source: NWS Daily Summary
Time(PST)TemperatureDew PointHumidity Pressure Visibility Wind DirectionWind SpeedGust SpeedPrecipitationEvents Conditions
12:15 AM 46.4°F 42.8°F 87% 30.03 in 10.0 miles SE 4.6 mph - N/A Rain Light Rain
12:35 AM 46.4°F 42.8°F 87% 30.03 in 8.0 miles SE 5.8 mph - N/A Rain Light Rain
12:55 AM 46.4°F 42.8°F 87% 30.03 in 10.0 miles East 3.5 mph - N/A Rain Light Rain
1:35 AM 42.8°F 41.0°F 93% 30.03 in 7.0 miles SE 5.8 mph - N/A Rain Light Rain
1:55 AM 42.8°F 41.0°F 93% 30.04 in 5.0 miles ENE 5.8 mph - N/A Rain Light Rain
2:15 AM 42.8°F 41.0°F 93% 30.04 in 6.0 miles Calm Calm - N/A   Overcast
2:35 AM 42.8°F 41.0°F 93% 30.04 in 5.0 miles ESE 3.5 mph - N/A   Overcast
2:55 AM 44.6°F 42.8°F 93% 30.04 in 10.0 miles ESE 3.5 mph - N/A   Overcast
3:15 AM 46.4°F 44.6°F 93% 30.03 in 5.0 miles SSE 4.6 mph - N/A   Overcast
3:35 AM 46.4°F 44.6°F 93% 30.03 in 6.0 miles SE 6.9 mph - N/A   Overcast
4:15 AM 46.4°F 44.6°F 93% 30.03 in 6.0 miles SSE 5.8 mph - N/A Rain Light Rain
4:35 AM 46.4°F 44.6°F 93% 30.04 in 10.0 miles South 4.6 mph - N/A Rain Light Rain
4:55 AM 46.4°F 44.6°F 93% 30.04 in 5.0 miles SSE 6.9 mph - N/A Rain Light Rain
5:15 AM 46.4°F 44.6°F 93% 30.04 in 5.0 miles South 4.6 mph - N/A Rain Light Rain
5:35 AM 46.4°F 44.6°F 93% 30.04 in 8.0 miles South 6.9 mph - N/A   Overcast
5:55 AM 46.4°F 44.6°F 93% 30.05 in 10.0 miles South 4.6 mph - N/A   Overcast
6:15 AM 46.4°F 44.6°F 93% 30.05 in 10.0 miles SSE 4.6 mph - N/A   Overcast
6:55 AM 46.4°F 44.6°F 93% 30.06 in 10.0 miles Calm Calm - N/A   Overcast
7:15 AM 46.4°F 44.6°F 93% 30.06 in 10.0 miles SSE 4.6 mph - N/A   Overcast
7:35 AM 46.4°F 44.6°F 93% 30.06 in 10.0 miles South 6.9 mph - N/A   Overcast
7:55 AM 46.4°F 44.6°F 93% 30.07 in 10.0 miles South 4.6 mph - N/A   Overcast
8:15 AM 46.4°F 44.6°F 93% 30.07 in 10.0 miles South 6.9 mph - N/A   Overcast
8:55 AM 48.2°F 44.6°F 87% 30.09 in 10.0 miles South 9.2 mph - N/A   Overcast
9:15 AM 46.4°F 44.6°F 93% 30.10 in 10.0 miles South 6.9 mph - N/A   Overcast
9:55 AM 48.2°F 46.4°F 93% 30.10 in 9.0 miles South 6.9 mph - N/A   Overcast
10:15 AM 48.2°F 44.6°F 87% 30.11 in 10.0 miles South 8.1 mph - N/A   Overcast
10:35 AM 48.2°F 46.4°F 93% 30.11 in 10.0 miles South 8.1 mph - N/A   Overcast
10:55 AM 48.2°F 46.4°F 93% 30.11 in 10.0 miles SSW 10.4 mph - N/A   Overcast
11:15 AM 48.2°F 46.4°F 93% 30.12 in 10.0 miles South 9.2 mph - N/A   Overcast
11:35 AM 48.2°F 46.4°F 93% 30.12 in 10.0 miles South 8.1 mph - N/A   Overcast
11:55 AM 48.2°F 46.4°F 93% 30.12 in 10.0 miles South 9.2 mph - N/A   Overcast
12:15 PM 48.2°F 46.4°F 93% 30.12 in 10.0 miles SSW 10.4 mph - N/A   Mostly Cloudy
12:35 PM 48.2°F 46.4°F 93% 30.12 in 10.0 miles South 9.2 mph - N/A   Partly Cloudy
12:55 PM 48.2°F 46.4°F 93% 30.12 in 10.0 miles South 10.4 mph - N/A   Partly Cloudy
1:15 PM 48.2°F 46.4°F 93% 30.12 in 10.0 miles South 9.2 mph - N/A   Partly Cloudy
1:55 PM 48.2°F 46.4°F 93% 30.12 in 10.0 miles SSW 11.5 mph - N/A   Partly Cloudy
2:15 PM 48.2°F 46.4°F 93% 30.11 in 10.0 miles SSW 11.5 mph - N/A   Scattered Clouds
2:35 PM 50.0°F 46.4°F 87% 30.11 in 10.0 miles South 10.4 mph - N/A   Mostly Cloudy
2:55 PM 48.2°F 46.4°F 93% 30.12 in 10.0 miles SSW 11.5 mph - N/A   Mostly Cloudy
3:15 PM 48.2°F 46.4°F 93% 30.12 in 10.0 miles SSW 11.5 mph - N/A   Mostly Cloudy
3:35 PM 48.2°F 46.4°F 93% 30.12 in 10.0 miles South 9.2 mph - N/A   Scattered Clouds
3:55 PM 48.2°F 46.4°F 93% 30.13 in 10.0 miles South 10.4 mph - N/A   Scattered Clouds
4:15 PM 48.2°F 46.4°F 93% 30.12 in 10.0 miles SSW 10.4 mph - N/A   Mostly Cloudy
4:35 PM 48.2°F 44.6°F 87% 30.13 in 10.0 miles SSW 12.7 mph 16.1 mph N/A   Scattered Clouds
4:55 PM 48.2°F 44.6°F 87% 30.13 in 10.0 miles South 9.2 mph - N/A   Scattered Clouds
5:15 PM 48.2°F 46.4°F 93% 30.13 in 10.0 miles South 8.1 mph - N/A   Scattered Clouds
5:35 PM 48.2°F 46.4°F 93% 30.13 in 10.0 miles SSW 10.4 mph 16.1 mph N/A   Mostly Cloudy
5:55 PM 46.4°F 44.6°F 93% 30.13 in 10.0 miles SSW 9.2 mph - N/A   Scattered Clouds
6:15 PM 46.4°F 44.6°F 93% 30.14 in 10.0 miles South 5.8 mph - N/A   Clear
6:35 PM 48.2°F 44.6°F 87% 30.14 in 10.0 miles SSW 8.1 mph - N/A   Partly Cloudy
6:55 PM 48.2°F 44.6°F 87% 30.14 in 10.0 miles South 8.1 mph - N/A   Partly Cloudy
7:15 PM 48.2°F 44.6°F 87% 30.14 in 10.0 miles South 5.8 mph - N/A   Partly Cloudy
7:35 PM 48.2°F 44.6°F 87% 30.14 in 10.0 miles SSW 9.2 mph - N/A   Scattered Clouds
7:55 PM 48.2°F 46.4°F 93% 30.14 in 10.0 miles South 10.4 mph 16.1 mph N/A   Overcast
8:15 PM 48.2°F 46.4°F 93% 30.14 in 10.0 miles South 8.1 mph - N/A   Mostly Cloudy
8:35 PM 48.2°F 46.4°F 93% 30.14 in 10.0 miles South 8.1 mph - N/A   Mostly Cloudy
8:55 PM 48.2°F 46.4°F 93% 30.14 in 10.0 miles South 9.2 mph - N/A   Mostly Cloudy
9:15 PM 48.2°F 46.4°F 93% 30.14 in 10.0 miles South 5.8 mph - N/A   Scattered Clouds
9:35 PM 48.2°F 46.4°F 93% 30.14 in 10.0 miles South 9.2 mph - N/A Rain Light Rain
9:55 PM 48.2°F 46.4°F 93% 30.15 in 10.0 miles SSW 11.5 mph - N/A Rain Light Rain
10:15 PM 48.2°F 46.4°F 93% 30.16 in 5.0 miles SSW 10.4 mph - N/A Rain Light Rain
10:35 PM 48.2°F 46.4°F 93% 30.16 in 4.0 miles South 3.5 mph - N/A Rain Light Rain
10:55 PM 48.2°F 46.4°F 93% 30.16 in 10.0 miles South 6.9 mph - N/A   Scattered Clouds
11:35 PM 48.2°F 46.4°F 93% 30.16 in 10.0 miles South 6.9 mph - N/A   Scattered Clouds
11:55 PM 48.2°F 46.4°F 93% 30.16 in 10.0 miles South 6.9 mph - N/A   Scattered Clouds
Moon Phase
Nov. 12 Nov. 13 Nov. 20 Nov. 28 Dec. 06
Sunrise:07:16 AM (PST) Moon Rise:05:44 AM (PST)11/12
Sunset:04:34 PM (PST) Moon Set:03:45 PM (PST)11/12

Copyright © 2014 The Weather Underground, Inc.